Location: *
(38.9800°N, 16.0500°E)
Time: 04:42:50
(UTC+00:00)

Cosmos 1634 Rocket - Pass Details

Date: 07 April 2020
Orbit: 960 x 991 km, 82.9° (Epoch: 05 June)

Event Time Altitude Azimuth Distance (km) Brightness Sun altitude
Rises 01:16:22 0° 357° (N) 3,653 7.6 -34.0°
Reaches altitude 10° 01:18:56 10° 2° (N) 2,702 6.8 -33.6°
Maximum altitude 01:25:00 56° 80° (E) 1,134 4.4 -32.8°
Enters shadow 01:25:27 55° 98° (E) 1,149 4.4 -32.8°
